Flag for U.S.A. Weather past 2 weeks in Trenton, New Jersey, U.S.A.

Now
27 °F

Sunny.


Feels Like: 23 °F
Forecast: 10 / 33 °F
Wind: 3 mph from Southwest

Location: Mercer County Airport

Current Time: Jan 29, 2015 at 12:30:13 PM

Latest Report: Jan 29, 2015 at 11:53 AM


Visibility: 10 mi

Pressure: 30.26 "Hg

Humidity: 39%

Dew point: 5 °F

Location of TrentonLocation

Historic Weather in Trenton — Graph

°F

Trenton temperature yesterday

Maximum temperature yesterday: 32 °F (at 2:53 PM)
Minimum temperature yesterday: 16 °F (at 3:53 AM)
Average temperature yesterday: 24 °F

Past Weeks' High & Low Weather Summary

 TemperatureHumidityPressure
High43 °F (Jan 25, 12:53 PM)97% (Jan 18, 12:53 PM)30.40 "Hg (Jan 18, 12:53 PM)
Low11 °F (Jan 29, 5:53 AM)24% (Jan 17, 3:53 PM)29.30 "Hg (Jan 24, 2:53 PM)
Average30 °F65%29.98 "Hg
* Reported Jan 14 10:53 AM — Jan 29 10:53 AM, Trenton, Weather by CustomWeather, © 2014

Note: Actual official high and low records may vary slightly from our data, if they occured in-between our weather recording intervals... More about our weather records

Advertising

Trenton weather history for previous 24 hours

 ConditionsComfort  
Time TempWeatherWind HumidityBarometerVisibility
10:53 AM
Jan 29
25 °FSunny.6 mph37%30.29 "Hg10 mi
9:53 AM22 °FSunny.No wind46%30.30 "Hg10 mi
8:53 AM20 °FSunny.No wind48%30.31 "Hg10 mi
7:53 AM13 °FSunny.3 mph67%30.33 "Hg10 mi
6:53 AM11 °FClear.6 mph67%30.32 "Hg10 mi
5:53 AM11 °FClear.3 mph64%30.30 "Hg10 mi
4:53 AM15 °FClear.5 mph53%30.29 "Hg10 mi
3:53 AM19 °FClear.No wind45%30.28 "Hg10 mi
2:53 AM18 °FClear.6 mph49%30.29 "Hg10 mi
1:53 AM20 °FClear.5 mph43%30.28 "Hg10 mi
12:53 AM21 °FClear.No wind40%30.26 "Hg10 mi
11:53 PM
Jan 28
23 °FClear.7 mph38%30.27 "Hg10 mi
10:53 PM23 °FClear.7 mph38%30.27 "Hg10 mi
9:53 PM25 °FClear.3 mph33%30.25 "Hg10 mi
8:53 PM27 °FClear.6 mph29%30.24 "Hg10 mi
7:53 PM27 °FClear.6 mph29%30.22 "Hg10 mi
6:53 PM28 °FClear.7 mph30%30.20 "Hg10 mi
5:53 PM30 °FClear.8 mph27%30.17 "Hg10 mi
4:53 PM32 °FSunny.8 mph30%30.14 "Hg10 mi
3:53 PM32 °FSunny.9 mph32%30.11 "Hg10 mi
2:53 PM32 °FSunny.13 mph33%30.09 "Hg10 mi
1:53 PM31 °FSunny.13 mph36%30.08 "Hg10 mi
12:53 PM29 °FSunny.16 mph38%30.07 "Hg10 mi
Weather by CustomWeather, © 2014

See weather overviewHow to use our weather pages